TimePDT,TemperatureF,Dew PointF,Humidity,Sea Level PressureIn,VisibilityMPH,Wind Direction,Wind SpeedMPH,Gust SpeedMPH,PrecipitationIn,Events,Conditions,WindDirDegrees,DateUTC
12:53 AM,64.9,57.9,78,29.78,10.0,NE,9.2,-,N/A,,Clear,40,2013-07-05 07:53:00
1:53 AM,61.0,55.9,83,29.76,10.0,West,6.9,-,N/A,,Clear,260,2013-07-05 08:53:00
2:53 AM,61.0,54.0,78,29.75,10.0,WNW,4.6,-,N/A,,Clear,290,2013-07-05 09:53:00
3:53 AM,59.0,54.0,83,29.74,10.0,NE,5.8,-,N/A,,Clear,50,2013-07-05 10:53:00
4:53 AM,55.9,52.0,87,29.75,10.0,NNW,3.5,-,N/A,,Clear,330,2013-07-05 11:53:00
5:53 AM,54.0,52.0,93,29.78,10.0,Calm,Calm,-,N/A,,Clear,0,2013-07-05 12:53:00
6:53 AM,63.0,55.9,78,29.77,10.0,Calm,Calm,-,N/A,,Clear,0,2013-07-05 13:53:00
7:53 AM,69.1,57.9,68,29.78,10.0,East,3.5,-,N/A,,Clear,90,2013-07-05 14:53:00
8:53 AM,75.9,57.0,52,29.78,10.0,Calm,Calm,-,N/A,,Clear,0,2013-07-05 15:53:00
9:53 AM,80.1,55.0,42,29.76,10.0,SW,5.8,-,N/A,,Clear,230,2013-07-05 16:53:00
10:53 AM,84.9,54.0,34,29.74,10.0,North,-9999.0,-,N/A,,Clear,0,2013-07-05 17:53:00
11:53 AM,90.0,52.0,27,29.72,10.0,SW,10.4,17.3,N/A,,Clear,220,2013-07-05 18:53:00
12:53 PM,93.9,44.1,18,29.70,10.0,SSW,10.4,17.3,N/A,,Clear,210,2013-07-05 19:53:00
1:53 PM,95.0,44.1,17,29.68,10.0,WSW,18.4,23.0,N/A,,Clear,250,2013-07-05 20:53:00
2:53 PM,97.0,41.0,14,29.65,10.0,North,-9999.0,-,N/A,,Clear,0,2013-07-05 21:53:00
3:11 PM,95.0,39.9,15,29.77,10.0,South,5.8,-,N/A,Thunderstorm,Partly Cloudy,190,2013-07-05 22:11:00
3:21 PM,96.1,39.0,14,29.77,10.0,West,5.8,-,N/A,Thunderstorm,Thunderstorm,260,2013-07-05 22:21:00
3:42 PM,96.1,42.1,15,29.76,10.0,West,13.8,-,N/A,,Partly Cloudy,270,2013-07-05 22:42:00
3:53 PM,96.1,39.9,14,29.62,10.0,West,13.8,-,N/A,,Partly Cloudy,260,2013-07-05 22:53:00
4:53 PM,97.0,32.0,10,29.60,10.0,Variable,4.6,-,N/A,,Clear,0,2013-07-05 23:53:00
5:53 PM,100.0,8.1,4,29.60,10.0,West,23.0,28.8,N/A,,Clear,270,2013-07-06 00:53:00
6:53 PM,96.1,18.0,6,29.59,10.0,WSW,20.7,-,N/A,,Clear,250,2013-07-06 01:53:00
7:53 PM,91.9,21.9,8,29.61,10.0,West,19.6,-,N/A,,Clear,280,2013-07-06 02:53:00
8:53 PM,86.0,25.0,11,29.64,10.0,WNW,13.8,-,N/A,,Clear,290,2013-07-06 03:53:00
9:53 PM,81.0,28.9,15,29.67,10.0,NW,9.2,-,N/A,,Clear,320,2013-07-06 04:53:00
10:53 PM,73.0,27.0,18,29.70,10.0,South,3.5,-,N/A,,Clear,190,2013-07-06 05:53:00
11:53 PM,71.1,28.9,21,29.70,10.0,WNW,4.6,-,N/A,,Clear,290,2013-07-06 06:53:00